Time,TemperatureF,DewpointF,PressureIn,WindDirection,WindDirectionDegrees,WindSpeedMPH,WindSpeedGustMPH,Humidity,HourlyPrecipIn,Conditions,Clouds,dailyrainin,SoftwareType,DateUTC
2013-02-03 00:02:00,22.0,20.0,-100.00,SW,225,0.0,0.0,94,-99.99,,,-99.99,,2013-02-03 06:02:00,
2013-02-03 00:11:00,22.0,21.0,-100.00,South,185,0.0,0.0,95,-99.99,,,-99.99,,2013-02-03 06:11:00,
2013-02-03 00:21:00,22.0,21.0,-100.00,SSW,195,0.0,0.0,96,-99.99,,,-99.99,,2013-02-03 06:21:00,
2013-02-03 00:31:00,22.0,22.0,-100.00,SSE,155,0.0,0.0,99,-99.99,,,-99.99,,2013-02-03 06:31:00,
2013-02-03 00:32:00,22.0,21.0,-100.00,SSW,195,0.0,0.0,96,-99.99,,,-99.99,,2013-02-03 06:32:00,
2013-02-03 00:41:00,22.0,22.0,-100.00,South,190,0.0,0.0,98,-99.99,,,-99.99,,2013-02-03 06:41:00,
2013-02-03 00:52:00,22.0,22.0,-100.00,South,180,0.0,0.0,98,-99.99,,,-99.99,,2013-02-03 06:52:00,
2013-02-03 01:01:00,22.0,22.0,-100.00,South,180,0.0,0.0,98,-99.99,,,-99.99,,2013-02-03 07:01:00,
2013-02-03 01:11:00,22.0,22.0,-100.00,SSE,155,0.0,0.0,99,-99.99,,,-99.99,,2013-02-03 07:11:00,
2013-02-03 01:21:00,22.0,22.0,-100.00,SSE,155,0.0,0.0,99,-99.99,,,-99.99,,2013-02-03 07:21:00,
2013-02-03 01:42:00,22.0,22.0,-100.00,SSW,205,0.0,0.0,99,-99.99,,,-99.99,,2013-02-03 07:42:00,
2013-02-03 01:52:00,22.0,22.0,-100.00,SSW,205,0.0,0.0,99,-99.99,,,-99.99,,2013-02-03 07:52:00,
2013-02-03 02:01:00,22.0,22.0,-100.00,SSW,205,0.0,0.0,99,-99.99,,,-99.99,,2013-02-03 08:01:00,
2013-02-03 02:11:00,22.0,22.0,-100.00,SSW,210,0.0,0.0,99,-99.99,,,-99.99,,2013-02-03 08:11:00,
2013-02-03 02:22:00,22.0,22.0,-100.00,SW,220,0.0,0.0,99,-99.99,,,-99.99,,2013-02-03 08:22:00,
2013-02-03 02:32:00,22.0,22.0,-100.00,SW,220,0.0,0.0,99,-99.99,,,-99.99,,2013-02-03 08:32:00,
2013-02-03 02:41:00,22.0,22.0,-100.00,SW,220,0.0,0.0,99,-99.99,,,-99.99,,2013-02-03 08:41:00,
2013-02-03 02:52:00,23.0,22.0,-100.00,SW,225,0.0,0.0,99,-99.99,,,-99.99,,2013-02-03 08:52:00,
2013-02-03 03:02:00,23.0,22.0,-100.00,SW,225,0.0,0.0,99,-99.99,,,-99.99,,2013-02-03 09:02:00,
2013-02-03 03:11:00,23.0,23.0,-100.00,SW,235,0.0,0.0,99,-99.99,,,-99.99,,2013-02-03 09:11:00,
2013-02-03 03:21:00,23.0,23.0,-100.00,SW,220,0.0,0.0,99,-99.99,,,-99.99,,2013-02-03 09:21:00,
2013-02-03 03:31:00,23.0,23.0,-100.00,SW,220,0.0,0.0,99,-99.99,,,-99.99,,2013-02-03 09:31:00,
2013-02-03 03:42:00,23.0,23.0,-100.00,SW,225,0.0,0.0,99,-99.99,,,-99.99,,2013-02-03 09:42:00,
2013-02-03 03:52:00,24.0,23.0,-100.00,WSW,255,0.0,0.0,99,-99.99,,,-99.99,,2013-02-03 09:52:00,
2013-02-03 04:01:00,24.0,23.0,-100.00,WSW,255,0.0,0.0,99,-99.99,,,-99.99,,2013-02-03 10:01:00,
2013-02-03 04:11:00,24.0,23.0,-100.00,SW,235,0.0,0.0,99,-99.99,,,-99.99,,2013-02-03 10:11:00,
2013-02-03 04:21:00,24.0,23.0,-100.00,WSW,240,0.0,0.0,99,-99.99,,,-99.99,,2013-02-03 10:21:00,
2013-02-03 04:31:00,24.0,23.0,-100.00,WSW,240,0.0,0.0,99,-99.99,,,-99.99,,2013-02-03 10:31:00,
2013-02-03 04:42:00,24.0,24.0,-100.00,West,265,0.0,0.0,99,-99.99,,,-99.99,,2013-02-03 10:42:00,
2013-02-03 04:53:00,24.0,24.0,-100.00,SW,220,0.0,0.0,99,-99.99,,,-99.99,,2013-02-03 10:53:00,
2013-02-03 05:02:00,24.0,24.0,-100.00,SW,220,0.0,0.0,99,-99.99,,,-99.99,,2013-02-03 11:02:00,
2013-02-03 05:11:00,25.0,24.0,-100.00,ENE,75,0.0,0.0,99,-99.99,,,-99.99,,2013-02-03 11:11:00,
2013-02-03 05:22:00,25.0,24.0,-100.00,East,90,0.0,0.0,99,-99.99,,,-99.99,,2013-02-03 11:22:00,
2013-02-03 05:32:00,25.0,24.0,-100.00,East,90,0.0,0.0,99,-99.99,,,-99.99,,2013-02-03 11:32:00,
2013-02-03 05:42:00,25.0,25.0,-100.00,West,270,0.0,0.0,99,-99.99,,,-99.99,,2013-02-03 11:42:00,
2013-02-03 05:52:00,25.0,25.0,-100.00,WSW,255,0.0,0.0,99,-99.99,,,-99.99,,2013-02-03 11:52:00,
2013-02-03 06:02:00,25.0,25.0,-100.00,WSW,255,0.0,0.0,99,-99.99,,,-99.99,,2013-02-03 12:02:00,
2013-02-03 06:11:00,26.0,26.0,-100.00,West,270,0.0,0.0,99,-99.99,,,-99.99,,2013-02-03 12:11:00,
2013-02-03 06:22:00,28.0,27.0,-100.00,NW,310,0.0,0.0,99,-99.99,,,-99.99,,2013-02-03 12:22:00,
2013-02-03 06:32:00,28.0,27.0,-100.00,NW,310,0.0,0.0,99,-99.99,,,-99.99,,2013-02-03 12:32:00,
2013-02-03 06:42:00,28.0,28.0,-100.00,WNW,295,0.0,0.0,99,-99.99,,,-99.99,,2013-02-03 12:42:00,
2013-02-03 06:53:00,28.0,28.0,-100.00,NW,320,0.0,0.0,99,-99.99,,,-99.99,,2013-02-03 12:53:00,
2013-02-03 07:03:00,28.0,28.0,-100.00,NW,320,0.0,0.0,99,-99.99,,,-99.99,,2013-02-03 13:03:00,
2013-02-03 07:11:00,29.0,28.0,-100.00,NW,325,0.0,0.0,95,-99.99,,,-99.99,,2013-02-03 13:11:00,
2013-02-03 07:21:00,29.0,27.0,-100.00,WNW,300,0.0,0.0,93,-99.99,,,-99.99,,2013-02-03 13:21:00,
2013-02-03 07:32:00,29.0,27.0,-100.00,WNW,300,0.0,0.0,93,-99.99,,,-99.99,,2013-02-03 13:32:00,
2013-02-03 07:42:00,28.0,25.0,-100.00,NW,305,0.0,0.0,89,-99.99,,,-99.99,,2013-02-03 13:42:00,
2013-02-03 07:52:00,28.0,23.0,-100.00,NW,310,0.0,0.0,84,-99.99,,,-99.99,,2013-02-03 13:52:00,
2013-02-03 08:02:00,28.0,23.0,-100.00,NW,310,0.0,0.0,84,-99.99,,,-99.99,,2013-02-03 14:02:00,
2013-02-03 08:11:00,27.0,21.0,-100.00,NW,320,0.0,0.0,77,-99.99,,,-99.99,,2013-02-03 14:11:00,
2013-02-03 08:21:00,27.0,20.0,-100.00,NW,310,0.0,0.0,76,-99.99,,,-99.99,,2013-02-03 14:21:00,
2013-02-03 08:32:00,27.0,20.0,-100.00,NW,310,0.0,0.0,76,-99.99,,,-99.99,,2013-02-03 14:32:00,
2013-02-03 08:42:00,27.0,19.0,-100.00,WNW,300,0.0,0.0,73,-99.99,,,-99.99,,2013-02-03 14:42:00,
2013-02-03 08:52:00,26.0,18.0,-100.00,WNW,290,0.0,0.0,72,-99.99,,,-99.99,,2013-02-03 14:52:00,
2013-02-03 09:03:00,26.0,18.0,-100.00,WNW,290,0.0,0.0,72,-99.99,,,-99.99,,2013-02-03 15:03:00,
2013-02-03 09:11:00,26.0,18.0,-100.00,WNW,290,0.0,0.0,72,-99.99,,,-99.99,,2013-02-03 15:11:00,
2013-02-03 10:22:00,26.0,18.0,-100.00,NW,320,0.0,0.0,70,-99.99,,,-99.99,,2013-02-03 16:22:00,
2013-02-03 10:33:00,26.0,18.0,-100.00,NW,320,0.0,0.0,70,-99.99,,,-99.99,,2013-02-03 16:33:00,
2013-02-03 10:42:00,27.0,19.0,-100.00,NW,305,0.0,0.0,69,-99.99,,,-99.99,,2013-02-03 16:42:00,
2013-02-03 10:52:00,29.0,19.0,-100.00,NW,315,0.0,0.0,67,-99.99,,,-99.99,,2013-02-03 16:52:00,
2013-02-03 11:02:00,29.0,19.0,-100.00,NW,315,0.0,0.0,67,-99.99,,,-99.99,,2013-02-03 17:02:00,
2013-02-03 11:11:00,28.0,19.0,-100.00,WNW,300,0.0,0.0,67,-99.99,,,-99.99,,2013-02-03 17:11:00,
2013-02-03 11:22:00,29.0,19.0,-100.00,NW,310,0.0,0.0,66,-99.99,,,-99.99,,2013-02-03 17:22:00,
2013-02-03 11:32:00,29.0,19.0,-100.00,NW,310,0.0,0.0,66,-99.99,,,-99.99,,2013-02-03 17:32:00,
2013-02-03 11:42:00,29.0,19.0,-100.00,WNW,295,0.0,0.0,67,-99.99,,,-99.99,,2013-02-03 17:42:00,
2013-02-03 11:52:00,30.0,20.0,-100.00,West,275,0.0,0.0,66,-99.99,,,-99.99,,2013-02-03 17:52:00,
2013-02-03 12:03:00,30.0,20.0,-100.00,West,275,0.0,0.0,66,-99.99,,,-99.99,,2013-02-03 18:03:00,
2013-02-03 12:12:00,30.0,19.0,-100.00,WNW,290,0.0,0.0,64,-99.99,,,-99.99,,2013-02-03 18:12:00,
2013-02-03 12:23:00,30.0,19.0,-100.00,NW,315,0.0,0.0,63,-99.99,,,-99.99,,2013-02-03 18:23:00,
2013-02-03 12:33:00,30.0,19.0,-100.00,NW,315,0.0,0.0,63,-99.99,,,-99.99,,2013-02-03 18:33:00,
2013-02-03 12:42:00,31.0,20.0,-100.00,WNW,300,0.0,0.0,62,-99.99,,,-99.99,,2013-02-03 18:42:00,
2013-02-03 12:52:00,31.0,18.0,-100.00,NW,305,0.0,0.0,60,-99.99,,,-99.99,,2013-02-03 18:52:00,
2013-02-03 13:02:00,31.0,18.0,-100.00,NW,305,0.0,0.0,60,-99.99,,,-99.99,,2013-02-03 19:02:00,
2013-02-03 13:11:00,31.0,18.0,-100.00,WNW,300,0.0,0.0,58,-99.99,,,-99.99,,2013-02-03 19:11:00,
2013-02-03 13:22:00,31.0,18.0,-100.00,WNW,290,0.0,0.0,58,-99.99,,,-99.99,,2013-02-03 19:22:00,
2013-02-03 13:32:00,31.0,18.0,-100.00,WNW,290,0.0,0.0,58,-99.99,,,-99.99,,2013-02-03 19:32:00,
2013-02-03 13:42:00,32.0,18.0,-100.00,WNW,285,0.0,0.0,55,-99.99,,,-99.99,,2013-02-03 19:42:00,
2013-02-03 13:52:00,33.0,18.0,-100.00,WNW,285,0.0,0.0,54,-99.99,,,-99.99,,2013-02-03 19:52:00,
2013-02-03 14:01:00,33.0,18.0,-100.00,WNW,285,0.0,0.0,54,-99.99,,,-99.99,,2013-02-03 20:01:00,
2013-02-03 14:12:00,33.0,16.0,-100.00,WNW,300,0.0,0.0,51,-99.99,,,-99.99,,2013-02-03 20:12:00,
2013-02-03 14:21:00,33.0,16.0,-100.00,NW,310,0.0,0.0,50,-99.99,,,-99.99,,2013-02-03 20:21:00,
2013-02-03 14:33:00,33.0,16.0,-100.00,NW,310,0.0,0.0,50,-99.99,,,-99.99,,2013-02-03 20:33:00,
2013-02-03 14:42:00,33.0,16.0,-100.00,NW,320,0.0,0.0,48,-99.99,,,-99.99,,2013-02-03 20:42:00,
2013-02-03 14:52:00,33.0,16.0,-100.00,NW,310,0.0,0.0,49,-99.99,,,-99.99,,2013-02-03 20:52:00,
2013-02-03 15:03:00,33.0,16.0,-100.00,NW,310,0.0,0.0,49,-99.99,,,-99.99,,2013-02-03 21:03:00,
2013-02-03 15:11:00,33.0,16.0,-100.00,NW,310,0.0,0.0,50,-99.99,,,-99.99,,2013-02-03 21:11:00,
2013-02-03 15:21:00,33.0,16.0,-100.00,West,270,0.0,0.0,50,-99.99,,,-99.99,,2013-02-03 21:21:00,
2013-02-03 15:32:00,33.0,16.0,-100.00,West,270,0.0,0.0,50,-99.99,,,-99.99,,2013-02-03 21:32:00,
2013-02-03 15:42:00,33.0,17.0,-100.00,WNW,300,0.0,0.0,51,-99.99,,,-99.99,,2013-02-03 21:42:00,
2013-02-03 15:52:00,33.0,16.0,-100.00,WNW,290,0.0,0.0,51,-99.99,,,-99.99,,2013-02-03 21:52:00,
2013-02-03 16:01:00,33.0,16.0,-100.00,WNW,290,0.0,0.0,51,-99.99,,,-99.99,,2013-02-03 22:01:00,
2013-02-03 16:11:00,32.0,16.0,-100.00,NW,320,0.0,0.0,52,-99.99,,,-99.99,,2013-02-03 22:11:00,
2013-02-03 16:21:00,32.0,16.0,-100.00,West,270,0.0,0.0,52,-99.99,,,-99.99,,2013-02-03 22:21:00,
2013-02-03 16:32:00,32.0,16.0,-100.00,West,270,0.0,0.0,52,-99.99,,,-99.99,,2013-02-03 22:32:00,
2013-02-03 16:42:00,32.0,17.0,-100.00,WNW,300,0.0,0.0,53,-99.99,,,-99.99,,2013-02-03 22:42:00,
2013-02-03 16:52:00,33.0,17.0,-100.00,WNW,285,0.0,0.0,53,-99.99,,,-99.99,,2013-02-03 22:52:00,
2013-02-03 17:01:00,33.0,17.0,-100.00,WNW,285,0.0,0.0,53,-99.99,,,-99.99,,2013-02-03 23:01:00,
2013-02-03 17:12:00,33.0,17.0,-100.00,West,270,0.0,0.0,53,-99.99,,,-99.99,,2013-02-03 23:12:00,
2013-02-03 17:22:00,32.0,16.0,-100.00,West,270,0.0,0.0,52,-99.99,,,-99.99,,2013-02-03 23:22:00,
2013-02-03 17:31:00,29.0,15.0,-100.00,SW,215,0.0,0.0,55,-99.99,,,-99.99,,2013-02-03 23:31:00,
2013-02-03 17:32:00,32.0,16.0,-100.00,West,270,0.0,0.0,52,-99.99,,,-99.99,,2013-02-03 23:32:00,
2013-02-03 17:42:00,31.0,16.0,-100.00,SW,235,0.0,0.0,52,-99.99,,,-99.99,,2013-02-03 23:42:00,
2013-02-03 17:52:00,30.0,15.0,-100.00,SW,235,0.0,0.0,53,-99.99,,,-99.99,,2013-02-03 23:52:00,
2013-02-03 18:02:00,30.0,15.0,-100.00,SW,235,0.0,0.0,53,-99.99,,,-99.99,,2013-02-04 00:02:00,
2013-02-03 18:11:00,29.0,15.0,-100.00,SW,215,0.0,0.0,55,-99.99,,,-99.99,,2013-02-04 00:11:00,
2013-02-03 18:22:00,29.0,15.0,-100.00,SW,215,0.0,0.0,55,-99.99,,,-99.99,,2013-02-04 00:22:00,
2013-02-03 18:42:00,29.0,16.0,-100.00,SW,215,0.0,0.0,58,-99.99,,,-99.99,,2013-02-04 00:42:00,
2013-02-03 18:52:00,28.0,15.0,-100.00,SW,215,0.0,0.0,58,-99.99,,,-99.99,,2013-02-04 00:52:00,
2013-02-03 19:01:00,28.0,15.0,-100.00,SW,215,0.0,0.0,58,-99.99,,,-99.99,,2013-02-04 01:01:00,
2013-02-03 19:11:00,28.0,16.0,-100.00,SW,225,0.0,0.0,60,-99.99,,,-99.99,,2013-02-04 01:11:00,
2013-02-03 19:21:00,27.0,16.0,-100.00,SW,220,0.0,0.0,63,-99.99,,,-99.99,,2013-02-04 01:21:00,
2013-02-03 19:32:00,27.0,16.0,-100.00,SW,220,0.0,0.0,63,-99.99,,,-99.99,,2013-02-04 01:32:00,
2013-02-03 19:41:00,27.0,17.0,-100.00,SW,215,0.0,0.0,64,-99.99,,,-99.99,,2013-02-04 01:41:00,
2013-02-03 19:52:00,27.0,17.0,-100.00,SW,220,0.0,0.0,65,-99.99,,,-99.99,,2013-02-04 01:52:00,
2013-02-03 20:02:00,27.0,17.0,-100.00,SW,220,0.0,0.0,65,-99.99,,,-99.99,,2013-02-04 02:02:00,
2013-02-03 20:11:00,27.0,17.0,-100.00,SW,225,0.0,0.0,67,-99.99,,,-99.99,,2013-02-04 02:11:00,
2013-02-03 20:21:00,27.0,18.0,-100.00,SW,230,0.0,0.0,69,-99.99,,,-99.99,,2013-02-04 02:21:00,
2013-02-03 20:32:00,27.0,18.0,-100.00,SW,230,0.0,0.0,69,-99.99,,,-99.99,,2013-02-04 02:32:00,
2013-02-03 20:41:00,27.0,19.0,-100.00,WSW,240,0.0,0.0,70,-99.99,,,-99.99,,2013-02-04 02:41:00,
2013-02-03 20:52:00,27.0,19.0,-100.00,SW,225,0.0,0.0,71,-99.99,,,-99.99,,2013-02-04 02:52:00,
2013-02-03 21:02:00,27.0,19.0,-100.00,SW,225,0.0,0.0,71,-99.99,,,-99.99,,2013-02-04 03:02:00,
2013-02-03 21:11:00,27.0,19.0,-100.00,SSW,210,0.0,0.0,73,-99.99,,,-99.99,,2013-02-04 03:11:00,
2013-02-03 21:21:00,27.0,20.0,-100.00,SSW,210,0.0,0.0,76,-99.99,,,-99.99,,2013-02-04 03:21:00,
2013-02-03 21:32:00,27.0,20.0,-100.00,SSW,210,0.0,0.0,76,-99.99,,,-99.99,,2013-02-04 03:32:00,
2013-02-03 21:42:00,27.0,21.0,-100.00,SSW,200,0.0,0.0,76,-99.99,,,-99.99,,2013-02-04 03:42:00,
2013-02-03 21:52:00,27.0,20.0,-100.00,South,175,0.0,0.0,75,-99.99,,,-99.99,,2013-02-04 03:52:00,
2013-02-03 22:01:00,27.0,20.0,-100.00,South,175,0.0,0.0,75,-99.99,,,-99.99,,2013-02-04 04:01:00,
2013-02-03 22:11:00,27.0,20.0,-100.00,South,185,0.0,0.0,76,-99.99,,,-99.99,,2013-02-04 04:11:00,
2013-02-03 22:21:00,27.0,20.0,-100.00,South,175,0.0,0.0,76,-99.99,,,-99.99,,2013-02-04 04:21:00,
2013-02-03 22:32:00,27.0,20.0,-100.00,South,175,0.0,0.0,76,-99.99,,,-99.99,,2013-02-04 04:32:00,
2013-02-03 22:42:00,27.0,20.0,-100.00,South,185,0.0,0.0,76,-99.99,,,-99.99,,2013-02-04 04:42:00,
2013-02-03 22:52:00,26.0,19.0,-100.00,SSW,205,0.0,0.0,75,-99.99,,,-99.99,,2013-02-04 04:52:00,
2013-02-03 23:03:00,26.0,19.0,-100.00,SSW,205,0.0,0.0,75,-99.99,,,-99.99,,2013-02-04 05:03:00,
2013-02-03 23:11:00,26.0,19.0,-100.00,SSW,210,0.0,0.0,76,-99.99,,,-99.99,,2013-02-04 05:11:00,
2013-02-03 23:22:00,26.0,20.0,-100.00,SSE,150,0.0,0.0,77,-99.99,,,-99.99,,2013-02-04 05:22:00,
2013-02-03 23:33:00,26.0,20.0,-100.00,SSE,150,0.0,0.0,77,-99.99,,,-99.99,,2013-02-04 05:33:00,
2013-02-03 23:42:00,26.0,20.0,-100.00,South,185,0.0,0.0,77,-99.99,,,-99.99,,2013-02-04 05:42:00,
2013-02-03 23:52:00,26.0,20.0,-100.00,SSW,210,0.0,0.0,77,-99.99,,,-99.99,,2013-02-04 05:52:00,